PEGASUS DEB, 24236

Orbit data source: Space-Track

PEGASUS DEB, 24236 is space debris in LEO originally from a launch on Thu, 19 May 1994 UTC launched from the Air Force Western Test Range (AFWTR). Debris objects in space refer to the collection of defunct objects orbiting the Earth. Examples of debris include non-operational satellites, rocket bodies, and fragments generated from explosions, collisions, or faulty payload assembly.

Loading next visibility...
Identifier
24236, 1994-029LK
Orbit
LEO
Country
Flag of USUS
Related business
Manufacturer
Unknown
Mission
Spacecraft
Bus & Motor
Unknown
Mass
Unknown
Launch date (UTC)
1994-05-19 (32 years ago)
Launch vehicle
Unknown
Launch site
Air Force Western Test Range (AFWTR)
Object type
Payload
Rocket body
Debris
Shape & HBR
Unknown shape, 0.1 m
Radar Cross Section
Small (<0.1 m²)

Expand to show TLE details & history
Last TLE update: 7 hours ago

TLE from 7 hours ago
0 PEGASUS DEB
1 24236U 94029LK  26062.46178533  .00019710  00000-0  24192-2 0  9992
2 24236  81.4279  62.3622 0312237 313.6803  43.8892 14.54011824519484
Epoch: 2026-03-03T11:04Z
TLE epoch observation values (Epoch: 2026-03-03T11:04:58.252Z)
Latitude
-0.00004°
Longitude
94.87897°
Altitude
559.395 km
Speed
7.665 km/s
True Right ascension
04h 09m 26s
True Declination
0° 00' 00"
Sunlit
Object was in daylight at epoch
Visualization orbit readout
Latitude
Unknown
Longitude
Unknown
Altitude
Unknown
Speed
Unknown
Apparent Right ascension
Unknown
Apparent Declination
Unknown
Sunlit
N/A
Visualization observer readout
Local Sidereal Time
22:04:03
Azimuth
Unknown
Elevation
Unknown
Doppler factor
Unknown
Orbital elements
Apogee altitude
930.986 km
Perigee altitude
488.37 km
Semi-major axis
7,087.815 km
Eccentricity
0.03122
Inclination
81.4279°
RAAN
62.3622°
Arg. of periapsis
313.6803°
True anomaly
46.44054°
Mean anomaly
43.8892°
Eccentric anomaly
45.15768°
Mean motion
3.63726 °/min
Orbital period
98.98 mins
BSTAR
0.0024192
Loading maneuver chart data...
Computing Atmospheric mass density...
Loading historical data...
Loading historical data...
Loading historical data...
Loading historical data...
Loading historical data...
Loading historical data...
Loading historical data...

Documentation

Showing up to 5 results
|